EHI
0 0 0 0 0 0 1 2 5 8 8 4 1 0 0 0 0 0 0 0 0 0 0 0 0 0 0 0 0 0 0 0 0 0 0 0 0 0 0 0 0 0 0
0 0 0 0 0 0 1 4 8 14 16 10 4 1 0 0 0 0 0 0 0 0 0 0 0 0 0 0 0 0 0 0 0 0 0 0 0 0 0 0 0 0 0
0 0 0 0 0 1 5 8 12 20 24 19 11 6 3 1 0 0 0 0 0 0 0 0 0 0 0 0 0 0 0 0 0 0 0 0 0 0 0 0 0 0 0
0 0 0 0 3 8 16 21 25 29 28 23 17 12 7 3 1 0 0 0 0 0 0 0 0 0 0 0 0 0 0 0 0 0 0 0 0 0 0 0 0 0 0
0 0 0 2 10 22 35 44 45 39 28 19 13 11 8 4 1 0 0 0 0 0 0 0 0 0 0 0 0 0 0 0 0 0 0 0 0 0 0 0 0 0 0
0 0 1 6 18 35 49 55 52 38 23 13 6 5 5 3 1 0 0 0 0 0 0 0 0 0 0 0 0 0 0 0 0 0 0 0 0 0 0 0 0 0 0
0 0 2 8 17 29 37 40 37 26 16 9 3 1 1 1 0 0 0 0 0 0 0 0 0 0 0 0 0 0 0 0 0 0 0 0 0 0 0 0 0 0 0
0 0 2 4 8 12 14 17 17 14 10 6 2 0 0 0 0 0 0 0 0 0 0 0 0 0 0 0 0 0 0 0 0 0 0 0 0 0 0 0 0 0 0
0 0 0 1 2 3 4 5 6 6 4 2 0 0 0 0 0 0 0 0 0 0 0 0 0 0 0 0 0 0 0 0 0 0 0 0 0 0 0 0 0 0 0
0 0 0 1 1 1 2 3 3 2 1 0 0 0 0 0 0 0 0 0 0 0 0 0 0 0 0 0 0 0 0 0 0 0 0 0 0 0 0 0 0 0 0
0 0 0 0 0 0 1 2 1 1 0 0 0 0 0 0 0 0 0 0 0 0 0 0 0 0 0 0 0 0 0 0 0 0 0 0 0 0 0 0 0 0 0
0 0 0 0 0 0 0 0 0 0 0 0 0 0 0 0 0 0 0 0 0 0 0 0 0 0 0 0 0 0 0 0 0 0 0 0 0 0 0 0 0 0 0
0 0 0 0 0 0 0 0 0 0 0 0 0 0 0 0 0 0 0 0 0 0 0 0 0 0 0 0 0 0 0 0 0 0 0 0 0 0 0 0 0 0 0
0 0 0 0 0 0 0 0 0 0 0 0 0 0 0 0 0 0 0 0 0 0 0 0 0 0 0 0 0 0 0 0 0 0 0 0 0 0 0 0 0 0 0
0 0 0 0 0 0 0 0 0 0 0 0 0 0 0 0 0 0 0 0 0 0 0 0 0 0 0 0 0 0 0 0 0 0 0 0 0 0 0 0 0 0 0
0 0 0 0 0 0 0 0 0 0 0 0 0 0 0 0 0 0 0 0 0 0 0 0 0 0 0 0 0 0 0 0 0 0 0 0 0 0 0 0 0 0 0
0 0 0 0 0 0 0 0 0 0 0 0 0 0 0 0 0 0 0 0 0 0 0 0 0 0 0 0 0 0 0 0 0 0 0 0 0 0 0 0 0 0 0
0 0 0 0 0 0 0 0 0 0 0 0 0 0 0 0 0 0 0 0 0 0 0 0 0 0 0 0 0 0 0 0 0 0 0 0 0 0 0 0 0 0 0
0 0 0 0 0 0 0 0 0 0 0 0 0 0 0 0 0 0 0 0 0 0 0 0 0 0 0 0 0 0 0 0 0 0 0 0 0 0 0 0 0 0 0
0 0 0 0 0 0 0 0 0 0 0 0 0 0 0 0 0 0 0 0 0 0 0 0 0 0 0 0 0 0 0 0 0 0 0 0 0 0 0 0 0 0 0
0 0 0 0 0 0 0 0 0 0 0 0 0 0 0 0 0 0 0 0 0 0 0 0 0 0 0 0 0 0 0 0 0 0 0 0 0 0 0 0 0 0 0
0 0 0 0 0 0 0 0 0 0 0 0 0 0 0 0 0 0 0 0 0 0 0 0 0 0 0 0 0 0 0 0 0 0 0 0 0 0 0 0 0 0 0
0 0 0 0 0 0 0 0 0 0 0 0 0 0 0 0 0 0 0 0 0 0 0 0 0 0 0 0 0 0 0 0 0 0 0 0 0 0 0 0 0 0 0
0 0 0 0 0 0 0 0 0 0 0 0 0 0 0 0 0 0 0 0 0 0 0 0 0 0 0 0 0 0 0 0 0 0 0 0 0 0 0 0 0 0 0
0 0 0 0 0 0 0 0 0 0 0 0 0 0 0 0 0 0 0 0 0 0 0 0 0 0 0 0 0 0 0 0 0 0 0 0 0 0 0 0 0 0 0
0 0 0 0 0 0 0 0 0 0 0 0 0 0 0 0 0 0 0 0 0 0 0 0 0 0 0 0 0 0 0 0 0 0 0 0 0 0 0 0 0 0 0
Wind_Speed
10 9 11 12 13 13 13 13 12 10 9 6 6 5 4 4 4 4 5 6 6 7 6 5 4 4 4 4 4 3 3 2 3 3 2 2 1 1 1 1 0 0 1
11 9 9 11 15 16 15 14 13 12 11 8 6 3 3 2 2 2 4 5 6 6 6 6 5 5 4 5 5 4 3 2 3 3 3 1 2 2 1 1 2 2 1
14 13 9 10 12 14 14 11 12 10 8 7 5 3 3 2 2 3 3 4 5 6 5 6 5 5 6 6 6 6 6 4 2 2 3 4 4 2 2 2 2 3 2
15 12 8 7 9 11 9 9 9 9 7 7 6 6 5 4 4 3 2 3 4 5 5 5 6 6 5 6 7 7 5 5 4 2 1 1 3 3 1 2 2 3 4
15 12 8 2 3 5 7 8 9 9 8 6 5 4 3 3 1 1 2 3 3 4 4 5 5 5 5 6 6 7 7 5 5 4 3 2 0 1 2 2 2 2 3
14 12 10 7 7 7 9 10 11 8 7 6 3 4 4 3 3 2 2 1 1 2 3 4 4 5 4 5 6 6 8 6 6 5 5 4 4 4 3 3 2 3 3
12 11 11 9 9 10 9 9 12 8 6 4 2 3 4 4 3 3 2 2 1 1 2 3 3 3 4 4 5 5 6 7 7 8 6 5 5 3 4 3 3 2 2
10 9 9 7 9 10 9 8 8 6 3 2 3 3 3 2 2 3 2 3 2 2 2 3 3 3 3 4 4 4 5 6 7 8 7 5 5 4 4 5 4 2 1
9 8 6 7 9 9 8 7 6 5 1 1 2 2 3 3 3 3 2 2 2 2 2 3 2 2 3 3 4 3 4 4 6 6 7 6 5 5 5 4 5 5 4
9 7 5 6 8 8 7 6 5 3 1 1 2 2 3 3 3 3 3 3 3 2 3 3 3 2 2 2 3 2 3 4 4 4 6 6 4 5 5 5 4 4 5
8 6 6 5 6 6 4 3 2 1 0 1 1 3 3 3 3 3 2 2 2 3 3 3 3 2 2 2 2 2 2 3 3 4 5 6 6 5 5 5 5 5 4
7 5 5 4 4 4 3 2 1 1 0 2 2 3 3 3 3 2 2 2 3 3 3 3 3 3 2 2 2 1 1 2 2 2 3 4 4 6 6 6 7 6 6
9 6 5 5 4 3 2 3 3 2 1 2 3 3 2 2 2 1 1 1 2 2 3 3 3 3 3 3 2 2 1 1 1 1 2 2 3 4 4 6 6 5 6
10 9 6 5 4 3 2 2 3 1 2 3 4 3 2 1 0 0 0 1 2 3 3 3 3 3 3 3 3 3 2 2 1 1 0 0 1 2 2 3 4 4 5
13 12 9 7 7 7 6 5 4 3 3 4 4 3 2 2 2 2 2 1 1 2 3 3 3 3 3 4 4 4 3 3 2 1 1 1 1 2 2 2 2 3 3
12 11 11 10 9 9 8 8 7 7 7 7 6 5 5 5 5 4 4 3 2 2 2 3 3 4 4 6 9 6 4 4 3 2 1 2 2 2 3 3 4 4 3
10 10 9 8 8 7 7 8 7 7 8 8 7 7 7 6 6 6 5 4 3 2 2 2 3 4 5 7 9 10 5 4 4 3 2 2 2 3 2 3 4 5 7
8 8 7 7 7 7 7 7 7 8 8 7 7 7 7 6 6 6 6 5 3 3 3 3 3 3 4 6 8 9 6 4 4 4 4 3 3 3 4 3 3 4 4
5 4 4 4 5 6 6 6 7 7 7 7 7 6 6 6 7 7 6 4 4 4 4 3 3 3 4 4 5 6 4 4 4 3 3 4 4 5 5 4 4 4 4
4 4 4 5 6 6 5 6 6 6 6 6 5 5 6 6 7 6 5 4 4 4 4 4 4 4 3 4 2 5 3 3 2 1 1 3 4 4 4 4 4 4 3
4 4 5 5 5 5 5 6 5 5 4 4 5 6 6 6 6 6 5 5 5 5 6 6 5 6 6 6 4 2 2 2 2 1 0 1 2 1 0 3 3 4 2
5 4 4 4 4 4 4 5 4 4 3 4 5 6 6 6 6 7 7 7 7 7 7 6 6 6 6 8 6 5 3 3 2 1 0 1 2 4 4 2 0 0 2
5 3 3 4 4 3 3 3 4 3 3 4 4 4 5 5 6 7 7 7 7 6 6 5 5 5 5 7 11 9 7 4 2 1 2 3 5 5 4 5 5 4 2
5 4 3 3 4 3 2 2 2 1 2 3 3 3 4 4 5 5 5 6 6 6 6 6 5 5 5 6 6 5 4 5 5 4 5 7 7 4 4 4 4 2 1
5 4 3 4 4 3 2 1 0 1 2 1 2 2 2 2 3 4 4 4 4 5 4 4 4 5 5 7 8 4 3 3 2 3 3 3 3 3 3 3 3 2 2
5 5 5 5 5 4 3 2 2 2 1 0 1 2 2 1 1 1 2 3 3 6 8 7 5 4 6 8 8 8 8 7 5 4 3 3 3 3 3 3 2 3 3
Wind_Direction
279 259 235 223 217 211 203 197 193 182 170 166 171 180 200 198 199 199 198 197 196 194 193 199 196 185 188 190 172 149 144 129 130 102 70 16 9 254 257 261 188 128 66
311 288 251 224 215 210 205 197 193 184 180 181 170 161 155 175 190 189 195 195 193 191 196 193 191 189 186 183 176 155 147 148 159 135 122 75 328 303 228 221 219 219 210
320 304 274 234 216 210 204 194 186 178 173 161 136 110 100 100 151 195 203 197 190 191 194 192 188 188 184 191 189 174 166 164 176 163 148 159 211 251 287 237 219 205 209
329 316 292 248 216 206 187 168 158 149 147 149 161 167 180 193 206 195 194 189 192 194 195 191 189 190 191 195 194 183 174 161 170 167 127 157 162 162 229 291 245 214 216
339 336 331 297 190 170 141 131 126 124 129 143 165 184 196 192 155 152 180 190 191 197 196 192 187 192 194 197 191 182 181 178 173 166 152 140 128 142 152 229 263 257 234
348 354 6 31 54 76 98 108 104 100 110 118 151 191 197 177 158 170 177 184 184 195 195 185 186 192 195 195 193 189 187 189 183 179 178 177 178 188 171 185 222 239 251
352 3 12 31 47 58 71 86 92 84 84 105 168 192 188 172 175 180 187 181 186 204 204 183 183 187 194 193 186 187 194 193 195 198 202 200 201 176 166 168 188 224 259
351 3 14 38 51 50 55 68 86 95 104 160 183 175 157 154 170 180 177 183 189 200 188 177 178 185 186 186 183 191 198 199 206 211 208 208 212 194 180 173 163 179 244
350 0 16 45 61 57 46 50 68 72 74 184 153 153 156 157 165 164 157 160 164 162 143 142 147 167 181 185 181 196 205 202 209 214 210 211 212 203 200 187 174 170 193
348 2 22 48 57 56 44 37 41 50 296 190 167 152 151 149 145 141 151 152 146 134 131 128 132 138 158 175 181 201 209 210 215 211 212 214 208 205 203 201 195 181 177
349 4 26 35 53 55 49 33 32 33 171 152 136 123 127 129 128 133 147 150 147 149 150 148 143 143 141 139 156 193 200 214 223 221 218 221 206 204 203 199 197 196 182
354 11 28 30 45 38 14 317 296 300 175 137 124 120 116 116 122 128 136 153 164 168 165 157 155 161 158 153 160 177 180 203 220 226 226 227 214 211 205 202 203 201 195
9 17 19 13 13 357 310 275 271 254 202 137 129 122 115 124 140 147 148 172 180 183 176 173 180 183 178 174 176 172 164 173 198 218 231 240 225 216 209 206 206 202 199
22 28 24 12 6 0 338 299 295 263 160 128 120 109 96 102 170 246 219 224 211 203 202 201 202 199 193 187 182 173 163 158 153 151 173 216 221 226 221 213 208 199 195
27 29 27 25 24 26 24 23 19 33 79 88 77 59 44 35 16 357 329 303 267 238 214 208 210 205 199 201 192 186 181 176 172 168 173 217 216 211 210 201 193 193 198
21 24 27 28 27 29 29 36 42 45 61 65 54 37 33 33 21 9 3 353 327 287 231 218 217 219 223 216 202 191 188 190 194 207 228 255 253 247 238 227 206 194 193
8 15 18 19 20 24 30 37 39 47 54 54 46 35 31 27 17 13 14 3 345 335 301 261 236 239 244 238 219 204 188 194 204 210 222 246 236 230 235 253 245 227 219
355 360 4 10 13 21 28 33 37 42 47 45 39 29 25 21 11 12 8 354 347 344 331 312 281 263 262 249 231 210 190 193 208 212 217 234 254 239 217 219 235 242 238
335 342 355 6 14 18 19 37 34 33 38 33 25 16 16 14 10 6 355 348 348 348 342 334 328 305 301 291 245 191 173 191 211 218 224 233 248 258 230 209 231 253 259
339 353 1 15 18 6 12 36 27 27 22 15 12 11 15 17 11 1 354 349 350 352 357 6 5 355 338 335 291 175 163 181 197 210 241 254 261 268 231 200 212 247 264
340 1 12 12 359 354 16 28 21 12 356 7 21 22 18 18 15 9 8 5 9 19 25 25 21 19 12 8 22 117 150 167 162 162 230 311 329 350 134 174 199 236 235
343 358 4 353 346 356 16 18 5 347 5 29 34 28 22 23 20 21 20 20 21 27 26 25 25 20 14 17 24 49 82 112 125 133 123 345 42 64 71 87 92 226 133
335 338 345 336 339 353 12 11 343 360 41 44 35 26 26 28 25 28 24 22 22 25 22 22 22 14 11 15 26 35 49 64 76 70 73 72 66 60 54 53 64 73 86
334 330 332 328 322 331 348 339 342 65 74 50 27 19 25 27 29 31 27 27 22 19 19 19 14 6 9 12 8 13 27 42 53 55 57 61 60 54 48 45 45 49 72
322 321 304 289 287 297 306 300 220 130 92 48 18 14 21 30 34 36 31 26 27 20 18 13 9 8 9 358 1 17 21 30 54 59 46 39 37 35 29 32 36 36 46
317 318 305 284 278 275 271 262 221 183 157 35 0 357 0 16 35 29 23 27 26 27 35 33 27 13 7 3 22 37 44 53 70 68 55 45 42 38 29 28 31 33 31